Flag for Norway Weather past 2 weeks in Hamar, Norway

Now
36 °F

Chilly.


Feels Like: 36 °F
Forecast: 50 / 57 °F
Wind: No wind

Location: Haugedalshogda

Current Time: Aug 31, 2015 at 7:13:12 AM

Latest Report: Aug 31, 2015 at 6:00 AM


Visibility: N/A

Pressure: 30.11 "Hg

Humidity: 95%

Dew point: 34 °F

Location of HamarLocation

Historic Weather in Hamar — Graph

°F

Hamar temperature yesterday

Maximum temperature yesterday: 69 °F (at 4:00 PM)
Minimum temperature yesterday: 37 °F (at 6:00 AM)
Average temperature yesterday: 54 °F

Past Weeks' High & Low Weather Summary

 TemperatureHumidityPressure
High77 °F (Aug 23, 6:00 PM)96% (Aug 17, 7:00 AM)30.46 "Hg (Aug 17, 7:00 AM)
Low32 °F (Aug 22, 5:00 AM)21% (Aug 19, 3:00 PM)29.47 "Hg (Aug 27, 8:00 PM)
Average56 °F71%30.10 "Hg
* Reported Aug 16 5:00 AM — Aug 31 5:00 AM, Hamar, Weather by CustomWeather, © 2015

Note: Actual official high and low records may vary slightly from our data, if they occured in-between our weather recording intervals... More about our weather records

Advertising

Hamar weather history for previous 24 hours

 ConditionsComfort  
Time TempWeatherWind HumidityBarometerVisibility
5:00 AM
Mon, Aug 31
33 °FChilly.No wind95%30.11 "HgN/A
4:00 AM35 °FChilly.No wind95%30.11 "HgN/A
3:00 AM36 °FChilly.No wind94%30.11 "HgN/A
2:00 AM37 °FChilly.1 mph95%30.10 "HgN/A
1:00 AM40 °FQuite cool.1 mph94%30.09 "HgN/A
12:00 AM42 °FQuite cool.1 mph92%30.09 "HgN/A
10:00 PM
Sun, Aug 30
47 °FCool.2 mph89%30.06 "HgN/A
9:00 PM48 °FCool.2 mph87%30.05 "HgN/A
8:00 PM58 °FCool.2 mph61%30.03 "HgN/A
7:00 PM66 °FMild.3 mph48%30.00 "HgN/A
6:00 PM68 °FMild.5 mph40%30.00 "HgN/A
5:00 PM65 °FMild.5 mph47%30.01 "HgN/A
4:00 PM69 °FMild.6 mph40%30.01 "HgN/A
3:00 PM69 °FMild.5 mph44%30.01 "HgN/A
2:00 PM65 °FMild.5 mph46%30.02 "HgN/A
1:00 PM68 °FMild.5 mph42%30.01 "HgN/A
12:00 PM65 °FMild.3 mph48%30.01 "HgN/A
11:00 AM62 °FRefreshingly cool.2 mph59%30.03 "HgN/A
10:00 AM57 °FCool.1 mph77%30.04 "HgN/A
9:00 AM47 °FCool.1 mph95%30.06 "HgN/A
8:00 AM46 °FCool.1 mph96%30.04 "HgN/A
7:00 AM40 °FQuite cool.1 mph96%30.05 "HgN/A
Weather by CustomWeather, © 2015

See weather overviewHow to use our weather pages